Weather History for Christmas Island, IS

Change the Weather History Date:

Wednesday, October 3, 2012

  Actual Average Record
Temperature  
Mean Temperature 76 °F -  
Max Temperature 79 °F 76 °F 81 °F (2013)
Min Temperature 73 °F 71 °F 32 °F (2006)
Cooling Degree Days 11    
Growing Degree Days 26 (Base 50)    
Moisture  
Dew Point 71 °F    
Average Humidity 86    
Maximum Humidity 94    
Minimum Humidity 71    
Precipitation  
Precipitation 0.00 in - - ()
Sea Level Pressure  
Sea Level Pressure 29.97 in    
Wind  
Wind Speed 10 mph ()    
Max Wind Speed 15 mph    
Max Gust Speed -    
Visibility 6.2 miles    
Events      
Averages and records for this station are not official NWS values.
T = Trace of Precipitation, MM = Missing Value Source: Averaged Metar Reports

Daily Weather History Graph

Daily Weather History Graph

Search for Another Location

Airport:

Trip Planner

Search our weather history database for the weather conditions in past years. The results will help you decide how hot, cold, wet, or windy it might be!

Date:

Astronomy

Oct. 03, 2012 Rise Set
Actual Time 5:39 AM CXT 5:52 PM CXT
Civil Twilight 5:18 AM CXT 6:13 PM CXT
Nautical Twilight 4:54 AM CXT 6:38 PM CXT
Astronomical Twilight 4:29 AM CXT 7:02 PM CXT
Moon 8:26 PM CXT (10/3) 7:34 AM CXT (10/3)
Length of Visible Light 12h 54m
Length of Day
12h 12m
Waning Gibbous, 91% of the Moon is Illuminated
Oct 3
Waning Gibbous
Oct 8
Last Quarter
Oct 15
New
Oct 22
First Quarter
Oct 30
Full

Hourly Weather History & Observations

Time (CXT) Temp. Dew Point Humidity Pressure Visibility Wind Dir Wind Speed Gust Speed Precip Events Conditions
12:00 AM 74 °F 71 °F 89% 29.99 in - SE 11.5 mph - -   Overcast
12:00 AM 73.4 °F 71.6 °F 94% 30.01 in 6.2 mi SE 11.5 mph - N/A   Overcast
1:00 AM 74 °F 71 °F 89% 29.97 in - SE 10.4 mph - -  
1:00 AM 73.4 °F 71.6 °F 94% 30.01 in 6.2 mi SE 10.4 mph - N/A   Mostly Cloudy
2:00 AM 73.4 °F 71.6 °F 94% 29.98 in 6.2 mi SE 9.2 mph - N/A   Mostly Cloudy
3:00 AM 74 °F 71 °F 88% 29.94 in - SE 10.4 mph - -   Overcast
3:00 AM 73.4 °F 71.6 °F 94% 29.98 in 6.2 mi SE 10.4 mph - N/A   Overcast
4:00 AM 74 °F 71 °F 88% 29.94 in - SE 10.4 mph - -  
4:00 AM 73.4 °F 71.6 °F 94% 29.98 in 6.2 mi SE 10.4 mph - N/A   Overcast
5:00 AM 73.4 °F 71.6 °F 94% 29.98 in 6.2 mi SE 10.4 mph - N/A   Overcast
6:00 AM 74 °F 72 °F 90% 29.96 in - SE 9.2 mph - -   Overcast
6:00 AM 73.4 °F 71.6 °F 94% 29.98 in 6.2 mi SE 9.2 mph - N/A   Overcast
7:00 AM 74 °F 71 °F 86% 29.98 in - SE 8.1 mph - -  
7:00 AM 75.2 °F 71.6 °F 89% 30.01 in 6.2 mi SE 8.1 mph - N/A   Overcast
8:00 AM 75.2 °F 71.6 °F 89% 30.01 in 6.2 mi SE 12.7 mph - N/A   Overcast
9:00 AM 75 °F 71 °F 84% 29.99 in - SE 11.5 mph - -   Overcast
9:00 AM 75.2 °F 71.6 °F 89% 30.04 in 6.2 mi SE 11.5 mph - N/A   Overcast
10:00 AM 75 °F 71 °F 85% 29.99 in - SE 11.5 mph - -  
10:00 AM 75.2 °F 71.6 °F 89% 30.04 in 6.2 mi SE 11.5 mph - N/A   Overcast
11:00 AM 77.0 °F 71.6 °F 83% 30.01 in 6.2 mi SE 15.0 mph - N/A   Overcast
12:00 PM 78 °F 70 °F 71% 29.95 in - SE 15.0 mph - -   Overcast
12:00 PM 77.0 °F 69.8 °F 78% 29.98 in 6.2 mi SE 15.0 mph - N/A   Overcast
1:00 PM 77 °F 70 °F 74% 29.93 in - SE 12.7 mph - -  
1:00 PM 77.0 °F 69.8 °F 78% 29.98 in 6.2 mi SE 12.7 mph - N/A   Overcast
2:00 PM 77.0 °F 69.8 °F 78% 29.95 in 6.2 mi SE 12.7 mph - N/A   Overcast
3:00 PM 76 °F 70 °F 77% 29.91 in - SE 11.5 mph - -   Overcast
3:00 PM 75.2 °F 69.8 °F 83% 29.95 in 6.2 mi SE 11.5 mph - N/A   Overcast
4:00 PM 75 °F 70 °F 79% 29.90 in - SE 12.7 mph - -  
4:00 PM 75.2 °F 69.8 °F 83% 29.92 in 6.2 mi SE 12.7 mph - N/A   Overcast
5:00 PM 75.2 °F 69.8 °F 83% 29.92 in 6.2 mi SE 13.8 mph - N/A   Overcast
6:00 PM 74 °F 69 °F 81% 29.91 in - SE 12.7 mph - -   Overcast
6:00 PM 73.4 °F 69.8 °F 88% 29.95 in 6.2 mi SE 12.7 mph - N/A   Mostly Cloudy
7:00 PM 74 °F 69 °F 80% 29.93 in - SE 10.4 mph - -  
7:00 PM 75.2 °F 69.8 °F 83% 29.98 in 6.2 mi SE 10.4 mph - N/A   Mostly Cloudy
8:00 PM 73.4 °F 69.8 °F 88% 29.98 in 6.2 mi SE 11.5 mph - N/A   Overcast
9:00 PM 74 °F 69 °F 79% 29.95 in - SE 9.2 mph - -   Overcast
9:00 PM 73.4 °F 69.8 °F 88% 29.98 in 6.2 mi SE 9.2 mph - N/A   Overcast
10:00 PM 74 °F 70 °F 82% 29.95 in - SE 11.5 mph - -  
10:00 PM 73.4 °F 69.8 °F 88% 29.98 in 6.2 mi SE 11.5 mph - N/A   Overcast
11:00 PM 73.4 °F 69.8 °F 88% 29.98 in 6.2 mi SE 11.5 mph - N/A   Overcast